Time,TemperatureF,DewpointF,PressureIn,WindDirection,WindDirectionDegrees,WindSpeedMPH,WindSpeedGustMPH,Humidity,HourlyPrecipIn,Conditions,Clouds,dailyrainin,SoftwareType,DateUTC
2013-05-16 00:03:00,51.8,26.1,17.73,NNW,345,3.0,6.0,25,-99.99,,,-99.99,meteohub,2013-05-16 06:03:00,
2013-05-16 00:08:00,51.4,26.1,17.73,East,89,3.0,6.0,25,-99.99,,,-99.99,meteohub,2013-05-16 06:08:00,
2013-05-16 00:13:00,51.4,26.1,17.73,ENE,70,3.0,6.0,25,-99.99,,,-99.99,meteohub,2013-05-16 06:13:00,
2013-05-16 00:18:00,51.6,26.1,17.73,East,93,4.0,6.0,25,-99.99,,,-99.99,meteohub,2013-05-16 06:18:00,
2013-05-16 00:24:00,51.6,26.1,17.73,NW,319,0.0,6.0,25,-99.99,,,-99.99,meteohub,2013-05-16 06:24:00,
2013-05-16 00:29:00,50.5,26.1,17.73,WSW,258,0.0,6.0,25,-99.99,,,-99.99,meteohub,2013-05-16 06:29:00,
2013-05-16 00:34:00,50.2,25.9,17.73,WSW,254,3.0,5.0,25,-99.99,,,-99.99,meteohub,2013-05-16 06:34:00,
2013-05-16 00:39:00,50.2,25.9,17.73,NNW,340,0.0,5.0,25,-99.99,,,-99.99,meteohub,2013-05-16 06:39:00,
2013-05-16 00:44:00,50.5,25.9,17.73,NNW,327,0.0,5.0,25,-99.99,,,-99.99,meteohub,2013-05-16 06:44:00,
2013-05-16 00:49:00,50.4,25.9,17.73,ESE,110,3.0,5.0,25,-99.99,,,-99.99,meteohub,2013-05-16 06:49:00,
2013-05-16 00:55:00,50.7,25.9,17.73,East,93,0.0,5.0,25,-99.99,,,-99.99,meteohub,2013-05-16 06:55:00,
2013-05-16 01:00:00,51.1,25.7,17.73,ESE,116,3.0,5.0,25,-99.99,,,-99.99,meteohub,2013-05-16 07:00:00,
2013-05-16 01:05:00,51.1,25.7,17.73,NNE,22,3.0,5.0,25,-99.99,,,-99.99,meteohub,2013-05-16 07:05:00,
2013-05-16 01:10:00,50.9,25.7,17.73,ESE,115,0.0,6.0,25,-99.99,,,-99.99,meteohub,2013-05-16 07:10:00,
2013-05-16 01:15:00,50.7,25.7,17.73,North,9,3.0,6.0,25,-99.99,,,-99.99,meteohub,2013-05-16 07:15:00,
2013-05-16 01:20:00,50.9,25.7,17.73,East,96,5.0,6.0,25,-99.99,,,-99.99,meteohub,2013-05-16 07:20:00,
2013-05-16 01:26:00,51.1,25.7,17.73,East,89,5.0,6.0,25,-99.99,,,-99.99,meteohub,2013-05-16 07:26:00,
2013-05-16 01:31:00,51.1,25.5,17.73,NE,46,2.0,6.0,25,-99.99,,,-99.99,meteohub,2013-05-16 07:31:00,
2013-05-16 01:36:00,50.9,25.5,17.73,West,281,0.0,6.0,25,-99.99,,,-99.99,meteohub,2013-05-16 07:36:00,
2013-05-16 01:41:00,50.0,25.5,17.73,SW,217,3.0,5.0,25,-99.99,,,-99.99,meteohub,2013-05-16 07:41:00,
2013-05-16 01:46:00,49.8,25.5,17.73,SSW,203,0.0,6.0,25,-99.99,,,-99.99,meteohub,2013-05-16 07:46:00,
2013-05-16 01:52:00,49.8,25.5,17.73,ESE,105,0.0,6.0,25,-99.99,,,-99.99,meteohub,2013-05-16 07:52:00,
2013-05-16 01:57:00,50.0,25.5,17.73,East,100,6.0,6.0,25,-99.99,,,-99.99,meteohub,2013-05-16 07:57:00,
2013-05-16 02:02:00,49.8,25.5,17.73,East,89,6.0,6.0,25,-99.99,,,-99.99,meteohub,2013-05-16 08:02:00,
2013-05-16 02:07:00,50.0,25.5,17.73,East,93,4.0,8.0,25,-99.99,,,-99.99,meteohub,2013-05-16 08:07:00,
2013-05-16 02:12:00,50.0,25.3,17.73,East,89,3.0,8.0,25,-99.99,,,-99.99,meteohub,2013-05-16 08:12:00,
2013-05-16 02:17:00,49.8,25.3,17.73,East,89,0.0,8.0,25,-99.99,,,-99.99,meteohub,2013-05-16 08:17:00,
2013-05-16 02:22:00,49.8,25.3,17.73,East,89,0.0,4.0,25,-99.99,,,-99.99,meteohub,2013-05-16 08:22:00,
2013-05-16 02:27:00,49.6,25.2,17.73,East,89,0.0,4.0,25,-99.99,,,-99.99,meteohub,2013-05-16 08:27:00,
2013-05-16 02:33:00,49.5,25.2,17.73,East,89,3.0,0.0,25,-99.99,,,-99.99,meteohub,2013-05-16 08:33:00,
2013-05-16 02:38:00,49.3,25.2,17.73,East,85,0.0,5.0,25,-99.99,,,-99.99,meteohub,2013-05-16 08:38:00,
2013-05-16 02:43:00,49.1,25.2,17.73,NNW,331,5.0,6.0,25,-99.99,,,-99.99,meteohub,2013-05-16 08:43:00,
2013-05-16 02:48:00,48.9,25.2,17.73,NNW,344,0.0,8.0,25,-99.99,,,-99.99,meteohub,2013-05-16 08:48:00,
2013-05-16 02:53:00,48.6,25.2,17.73,East,82,0.0,8.0,25,-99.99,,,-99.99,meteohub,2013-05-16 08:53:00,
2013-05-16 02:58:00,48.4,25.2,17.73,East,82,0.0,5.0,25,-99.99,,,-99.99,meteohub,2013-05-16 08:58:00,
2013-05-16 03:04:00,48.4,25.2,17.73,East,81,0.0,5.0,25,-99.99,,,-99.99,meteohub,2013-05-16 09:04:00,
2013-05-16 03:09:00,48.4,25.0,17.73,East,81,0.0,0.0,25,-99.99,,,-99.99,meteohub,2013-05-16 09:09:00,
2013-05-16 03:14:00,48.4,25.0,17.73,East,81,0.0,0.0,25,-99.99,,,-99.99,meteohub,2013-05-16 09:14:00,
2013-05-16 03:19:00,48.4,25.0,17.73,NE,41,0.0,0.0,25,-99.99,,,-99.99,meteohub,2013-05-16 09:19:00,
2013-05-16 03:24:00,48.2,25.0,17.73,ENE,74,0.0,4.0,25,-99.99,,,-99.99,meteohub,2013-05-16 09:24:00,
2013-05-16 03:30:00,47.8,25.0,17.73,NW,325,0.0,4.0,25,-99.99,,,-99.99,meteohub,2013-05-16 09:30:00,
2013-05-16 03:35:00,47.3,25.0,17.73,NNW,332,4.0,4.0,25,-99.99,,,-99.99,meteohub,2013-05-16 09:35:00,
2013-05-16 03:40:00,46.6,25.0,17.73,NNW,333,0.0,4.0,25,-99.99,,,-99.99,meteohub,2013-05-16 09:40:00,
2013-05-16 03:45:00,46.0,25.0,17.73,West,259,0.0,4.0,25,-99.99,,,-99.99,meteohub,2013-05-16 09:45:00,
2013-05-16 03:50:00,45.9,25.0,17.73,WSW,241,0.0,5.0,25,-99.99,,,-99.99,meteohub,2013-05-16 09:50:00,
2013-05-16 03:55:00,45.3,25.0,17.73,WSW,241,0.0,5.0,25,-99.99,,,-99.99,meteohub,2013-05-16 09:55:00,
2013-05-16 04:01:00,44.8,24.8,17.73,WSW,241,0.0,5.0,25,-99.99,,,-99.99,meteohub,2013-05-16 10:01:00,
2013-05-16 04:06:00,45.1,24.8,17.73,SE,142,0.0,5.0,25,-99.99,,,-99.99,meteohub,2013-05-16 10:06:00,
2013-05-16 04:11:00,45.7,24.8,17.73,East,89,3.0,0.0,25,-99.99,,,-99.99,meteohub,2013-05-16 10:11:00,
2013-05-16 04:16:00,45.9,24.8,17.73,East,83,3.0,6.0,25,-99.99,,,-99.99,meteohub,2013-05-16 10:16:00,
2013-05-16 04:21:00,46.0,24.6,17.73,East,83,0.0,6.0,25,-99.99,,,-99.99,meteohub,2013-05-16 10:21:00,
2013-05-16 04:26:00,46.2,24.6,17.73,NE,36,0.0,6.0,25,-99.99,,,-99.99,meteohub,2013-05-16 10:26:00,
2013-05-16 04:32:00,46.2,24.6,17.73,NE,49,0.0,5.0,25,-99.99,,,-99.99,meteohub,2013-05-16 10:32:00,
2013-05-16 04:37:00,46.0,24.6,17.73,NW,313,0.0,0.0,25,-99.99,,,-99.99,meteohub,2013-05-16 10:37:00,
2013-05-16 04:42:00,45.5,24.4,17.73,NNW,331,0.0,0.0,25,-99.99,,,-99.99,meteohub,2013-05-16 10:42:00,
2013-05-16 04:47:00,45.3,24.4,17.73,NW,315,0.0,0.0,25,-99.99,,,-99.99,meteohub,2013-05-16 10:47:00,
2013-05-16 04:52:00,44.8,24.4,17.73,NNW,331,0.0,0.0,25,-99.99,,,-99.99,meteohub,2013-05-16 10:52:00,
2013-05-16 04:58:00,44.4,24.4,17.73,NNW,331,0.0,0.0,25,-99.99,,,-99.99,meteohub,2013-05-16 10:58:00,
2013-05-16 05:03:00,43.9,24.4,17.73,NNW,331,0.0,0.0,25,-99.99,,,-99.99,meteohub,2013-05-16 11:03:00,
2013-05-16 05:08:00,43.5,24.4,17.73,NNW,331,0.0,0.0,25,-99.99,,,-99.99,meteohub,2013-05-16 11:08:00,
2013-05-16 05:13:00,43.5,24.4,17.73,NNW,331,0.0,0.0,25,-99.99,,,-99.99,meteohub,2013-05-16 11:13:00,
2013-05-16 05:18:00,43.5,24.3,17.73,NNW,331,0.0,0.0,25,-99.99,,,-99.99,meteohub,2013-05-16 11:18:00,
2013-05-16 05:24:00,43.0,24.3,17.73,NNW,331,0.0,0.0,25,-99.99,,,-99.99,meteohub,2013-05-16 11:24:00,
2013-05-16 05:29:00,42.8,24.3,17.73,NNW,331,0.0,0.0,25,-99.99,,,-99.99,meteohub,2013-05-16 11:29:00,
2013-05-16 05:34:00,42.6,24.1,17.73,NNW,331,0.0,0.0,25,-99.99,,,-99.99,meteohub,2013-05-16 11:34:00,
2013-05-16 05:39:00,42.3,24.1,17.73,NNW,331,0.0,0.0,25,-99.99,,,-99.99,meteohub,2013-05-16 11:39:00,
2013-05-16 05:45:00,41.7,24.1,17.73,NW,316,0.0,0.0,25,-99.99,,,-99.99,meteohub,2013-05-16 11:45:00,
2013-05-16 05:50:00,41.5,24.1,17.73,NW,316,0.0,0.0,25,-99.99,,,-99.99,meteohub,2013-05-16 11:50:00,
2013-05-16 05:55:00,41.5,24.1,17.73,NW,316,0.0,0.0,25,-99.99,,,-99.99,meteohub,2013-05-16 11:55:00,
2013-05-16 06:00:00,41.5,24.1,17.73,NW,316,0.0,0.0,25,-99.99,,,-99.99,meteohub,2013-05-16 12:00:00,
2013-05-16 06:06:00,41.7,23.9,17.73,NW,316,0.0,0.0,25,-99.99,,,-99.99,meteohub,2013-05-16 12:06:00,
2013-05-16 06:11:00,41.5,23.9,17.73,NNE,22,0.0,0.0,25,-99.99,,,-99.99,meteohub,2013-05-16 12:11:00,
2013-05-16 06:16:00,41.7,23.9,17.73,NNE,24,0.0,0.0,25,-99.99,,,-99.99,meteohub,2013-05-16 12:16:00,
2013-05-16 06:21:00,41.7,23.9,17.73,NNE,23,0.0,0.0,25,-99.99,,,-99.99,meteohub,2013-05-16 12:21:00,
2013-05-16 06:27:00,41.7,23.9,17.73,NNE,16,0.0,0.0,25,-99.99,,,-99.99,meteohub,2013-05-16 12:27:00,
2013-05-16 06:32:00,41.7,23.9,17.73,NNE,16,0.0,0.0,25,-99.99,,,-99.99,meteohub,2013-05-16 12:32:00,
2013-05-16 06:37:00,41.5,23.9,17.73,WNW,292,0.0,0.0,25,-99.99,,,-99.99,meteohub,2013-05-16 12:37:00,
2013-05-16 06:42:00,41.4,23.9,17.73,North,5,0.0,0.0,25,-99.99,,,-99.99,meteohub,2013-05-16 12:42:00,
2013-05-16 06:47:00,41.5,23.9,17.73,North,5,0.0,0.0,25,-99.99,,,-99.99,meteohub,2013-05-16 12:47:00,
2013-05-16 06:52:00,41.7,23.9,17.73,North,5,0.0,0.0,25,-99.99,,,-99.99,meteohub,2013-05-16 12:52:00,
2013-05-16 06:57:00,41.9,23.7,17.73,North,5,0.0,0.0,25,-99.99,,,-99.99,meteohub,2013-05-16 12:57:00,
2013-05-16 07:02:00,42.1,23.7,17.73,NE,35,0.0,0.0,25,-99.99,,,-99.99,meteohub,2013-05-16 13:02:00,
2013-05-16 07:07:00,42.3,23.7,17.73,East,88,0.0,0.0,25,-99.99,,,-99.99,meteohub,2013-05-16 13:07:00,
2013-05-16 07:12:00,42.6,23.7,17.73,East,90,0.0,0.0,25,-99.99,,,-99.99,meteohub,2013-05-16 13:12:00,
2013-05-16 07:17:00,42.8,23.5,17.73,ESE,120,0.0,0.0,25,-99.99,,,-99.99,meteohub,2013-05-16 13:17:00,
2013-05-16 07:22:00,43.3,23.5,17.73,East,85,0.0,0.0,25,-99.99,,,-99.99,meteohub,2013-05-16 13:22:00,
2013-05-16 07:27:00,43.5,23.5,17.73,North,10,0.0,0.0,25,-99.99,,,-99.99,meteohub,2013-05-16 13:27:00,
2013-05-16 07:32:00,43.9,23.5,17.73,ENE,73,0.0,0.0,25,-99.99,,,-99.99,meteohub,2013-05-16 13:32:00,
2013-05-16 07:37:00,44.1,23.5,17.73,NE,48,0.0,0.0,25,-99.99,,,-99.99,meteohub,2013-05-16 13:37:00,
2013-05-16 07:42:00,44.6,23.5,17.73,ENE,68,0.0,0.0,25,-99.99,,,-99.99,meteohub,2013-05-16 13:42:00,
2013-05-16 07:47:00,45.1,23.5,17.73,ENE,68,0.0,0.0,25,-99.99,,,-99.99,meteohub,2013-05-16 13:47:00,
2013-05-16 07:53:00,45.5,23.5,17.73,ENE,77,0.0,0.0,25,-99.99,,,-99.99,meteohub,2013-05-16 13:53:00,
2013-05-16 07:58:00,46.2,23.5,17.73,ENE,77,0.0,0.0,25,-99.99,,,-99.99,meteohub,2013-05-16 13:58:00,
2013-05-16 08:03:00,46.8,23.4,17.73,ENE,77,0.0,4.0,25,-99.99,,,-99.99,meteohub,2013-05-16 14:03:00,
2013-05-16 08:08:00,47.3,23.4,17.73,ENE,77,0.0,0.0,25,-99.99,,,-99.99,meteohub,2013-05-16 14:08:00,
2013-05-16 08:13:00,47.5,23.4,17.73,ENE,77,0.0,0.0,25,-99.99,,,-99.99,meteohub,2013-05-16 14:13:00,
2013-05-16 08:19:00,48.2,23.4,17.73,ENE,77,0.0,0.0,25,-99.99,,,-99.99,meteohub,2013-05-16 14:19:00,
2013-05-16 08:24:00,48.7,23.4,17.73,ENE,77,0.0,0.0,25,-99.99,,,-99.99,meteohub,2013-05-16 14:24:00,
2013-05-16 08:29:00,49.3,23.4,17.73,ENE,77,0.0,0.0,25,-99.99,,,-99.99,meteohub,2013-05-16 14:29:00,
2013-05-16 08:34:00,50.0,23.4,17.73,ENE,77,0.0,0.0,25,-99.99,,,-99.99,meteohub,2013-05-16 14:34:00,
2013-05-16 08:40:00,50.4,23.5,17.73,ENE,77,0.0,0.0,25,-99.99,,,-99.99,meteohub,2013-05-16 14:40:00,
2013-05-16 08:45:00,51.1,23.5,17.73,ENE,77,0.0,0.0,25,-99.99,,,-99.99,meteohub,2013-05-16 14:45:00,
2013-05-16 08:50:00,51.6,23.5,17.73,ENE,77,0.0,0.0,25,-99.99,,,-99.99,meteohub,2013-05-16 14:50:00,
2013-05-16 08:55:00,51.6,23.5,17.73,South,189,3.0,0.0,25,-99.99,,,-99.99,meteohub,2013-05-16 14:55:00,
2013-05-16 09:00:00,51.6,23.5,17.73,SSW,192,0.0,5.0,25,-99.99,,,-99.99,meteohub,2013-05-16 15:00:00,
2013-05-16 09:05:00,52.3,23.5,17.73,SSW,192,0.0,5.0,25,-99.99,,,-99.99,meteohub,2013-05-16 15:05:00,
2013-05-16 09:11:00,53.1,23.5,17.73,ESE,107,0.0,5.0,25,-99.99,,,-99.99,meteohub,2013-05-16 15:11:00,
2013-05-16 09:16:00,53.4,23.5,17.73,South,183,4.0,5.0,25,-99.99,,,-99.99,meteohub,2013-05-16 15:16:00,
2013-05-16 09:21:00,54.0,23.5,17.73,South,179,4.0,5.0,25,-99.99,,,-99.99,meteohub,2013-05-16 15:21:00,
2013-05-16 09:26:00,53.8,23.5,17.73,South,178,0.0,5.0,25,-99.99,,,-99.99,meteohub,2013-05-16 15:26:00,
2013-05-16 09:31:00,53.4,23.5,17.73,South,178,0.0,5.0,25,-99.99,,,-99.99,meteohub,2013-05-16 15:31:00,
2013-05-16 09:37:00,53.2,23.5,17.73,SW,228,5.0,5.0,25,-99.99,,,-99.99,meteohub,2013-05-16 15:37:00,
2013-05-16 09:42:00,53.6,23.5,17.73,South,171,3.0,5.0,25,-99.99,,,-99.99,meteohub,2013-05-16 15:42:00,
2013-05-16 09:47:00,54.0,23.5,17.73,ESE,103,4.0,5.0,25,-99.99,,,-99.99,meteohub,2013-05-16 15:47:00,
2013-05-16 09:52:00,54.1,23.5,17.73,SE,138,0.0,5.0,25,-99.99,,,-99.99,meteohub,2013-05-16 15:52:00,
2013-05-16 09:57:00,54.3,23.5,17.73,SSE,159,3.0,5.0,25,-99.99,,,-99.99,meteohub,2013-05-16 15:57:00,
2013-05-16 10:02:00,54.7,23.5,17.73,NE,52,0.0,5.0,25,-99.99,,,-99.99,meteohub,2013-05-16 16:02:00,
2013-05-16 10:07:00,55.0,23.5,17.73,SSW,212,4.0,6.0,25,-99.99,,,-99.99,meteohub,2013-05-16 16:07:00,
2013-05-16 10:12:00,55.8,23.5,17.73,South,190,4.0,6.0,25,-99.99,,,-99.99,meteohub,2013-05-16 16:12:00,
2013-05-16 10:17:00,55.9,23.5,17.73,WSW,252,4.0,6.0,25,-99.99,,,-99.99,meteohub,2013-05-16 16:17:00,
2013-05-16 10:22:00,56.3,23.5,17.73,SW,216,6.0,9.0,25,-99.99,,,-99.99,meteohub,2013-05-16 16:22:00,
2013-05-16 10:27:00,56.7,23.5,17.73,SSW,207,6.0,9.0,25,-99.99,,,-99.99,meteohub,2013-05-16 16:27:00,
2013-05-16 10:32:00,56.7,23.5,17.73,SSW,207,8.0,9.0,25,-99.99,,,-99.99,meteohub,2013-05-16 16:32:00,
2013-05-16 10:37:00,56.7,23.5,17.73,SSW,195,5.0,9.0,25,-99.99,,,-99.99,meteohub,2013-05-16 16:37:00,
2013-05-16 10:42:00,57.0,23.5,17.73,SW,230,4.0,9.0,25,-99.99,,,-99.99,meteohub,2013-05-16 16:42:00,
2013-05-16 10:47:00,57.4,23.7,17.73,SW,221,5.0,8.0,25,-99.99,,,-99.99,meteohub,2013-05-16 16:47:00,
2013-05-16 10:52:00,57.6,23.7,17.73,SSW,193,9.0,10.0,25,-99.99,,,-99.99,meteohub,2013-05-16 16:52:00,
2013-05-16 10:57:00,57.7,23.7,17.73,South,190,8.0,10.0,25,-99.99,,,-99.99,meteohub,2013-05-16 16:57:00,
2013-05-16 11:02:00,58.6,23.7,17.73,SSW,211,7.0,11.0,25,-99.99,,,-99.99,meteohub,2013-05-16 17:02:00,
2013-05-16 11:07:00,59.5,23.7,17.73,SW,219,6.0,11.0,25,-99.99,,,-99.99,meteohub,2013-05-16 17:07:00,
2013-05-16 11:12:00,59.4,23.7,17.73,SW,234,9.0,11.0,25,-99.99,,,-99.99,meteohub,2013-05-16 17:12:00,
2013-05-16 11:17:00,59.5,23.7,17.73,SW,222,5.0,10.0,25,-99.99,,,-99.99,meteohub,2013-05-16 17:17:00,
2013-05-16 11:22:00,60.1,23.9,17.73,SSW,199,8.0,10.0,25,-99.99,,,-99.99,meteohub,2013-05-16 17:22:00,
2013-05-16 11:27:00,60.4,23.9,17.73,WSW,252,9.0,10.0,25,-99.99,,,-99.99,meteohub,2013-05-16 17:27:00,
2013-05-16 11:32:00,60.3,23.9,17.73,SSW,209,6.0,13.0,25,-99.99,,,-99.99,meteohub,2013-05-16 17:32:00,
2013-05-16 11:37:00,60.3,23.9,17.73,SSW,199,8.0,13.0,25,-99.99,,,-99.99,meteohub,2013-05-16 17:37:00,
2013-05-16 11:42:00,61.2,23.9,17.73,South,173,9.0,13.0,25,-99.99,,,-99.99,meteohub,2013-05-16 17:42:00,
2013-05-16 11:47:00,60.4,23.9,17.73,SSW,201,8.0,13.0,25,-99.99,,,-99.99,meteohub,2013-05-16 17:47:00,
2013-05-16 11:52:00,60.8,23.9,17.73,SW,236,6.0,13.0,25,-99.99,,,-99.99,meteohub,2013-05-16 17:52:00,
2013-05-16 11:57:00,61.7,23.9,17.73,South,187,11.0,13.0,25,-99.99,,,-99.99,meteohub,2013-05-16 17:57:00,
2013-05-16 12:03:00,60.8,23.9,17.73,SSW,206,8.0,13.0,25,-99.99,,,-99.99,meteohub,2013-05-16 18:03:00,
2013-05-16 12:08:00,60.3,23.9,17.73,SSW,207,8.0,13.0,25,-99.99,,,-99.99,meteohub,2013-05-16 18:08:00,
2013-05-16 12:13:00,59.5,23.9,17.73,SSW,212,6.0,13.0,25,-99.99,,,-99.99,meteohub,2013-05-16 18:13:00,
2013-05-16 12:18:00,60.6,24.1,17.73,South,186,8.0,13.0,25,-99.99,,,-99.99,meteohub,2013-05-16 18:18:00,
2013-05-16 12:23:00,61.2,24.1,17.73,SW,216,12.0,13.0,25,-99.99,,,-99.99,meteohub,2013-05-16 18:23:00,
2013-05-16 12:29:00,61.9,24.1,17.73,South,170,8.0,13.0,25,-99.99,,,-99.99,meteohub,2013-05-16 18:29:00,
2013-05-16 12:34:00,61.7,24.1,17.73,SSW,205,8.0,13.0,25,-99.99,,,-99.99,meteohub,2013-05-16 18:34:00,
2013-05-16 12:39:00,62.1,24.3,17.73,SW,225,8.0,14.0,25,-99.99,,,-99.99,meteohub,2013-05-16 18:39:00,
2013-05-16 12:44:00,61.0,24.3,17.73,SW,217,10.0,13.0,25,-99.99,,,-99.99,meteohub,2013-05-16 18:44:00,
2013-05-16 12:49:00,60.6,24.3,17.73,SW,218,10.0,18.0,25,-99.99,,,-99.99,meteohub,2013-05-16 18:49:00,
2013-05-16 12:55:00,61.2,24.3,17.73,South,179,11.0,18.0,25,-99.99,,,-99.99,meteohub,2013-05-16 18:55:00,
2013-05-16 13:00:00,62.4,24.3,17.73,SSW,196,8.0,15.0,25,-99.99,,,-99.99,meteohub,2013-05-16 19:00:00,
2013-05-16 13:05:00,63.1,24.3,17.73,SW,223,9.0,15.0,25,-99.99,,,-99.99,meteohub,2013-05-16 19:05:00,
2013-05-16 13:10:00,63.3,24.4,17.73,SSW,195,8.0,15.0,25,-99.99,,,-99.99,meteohub,2013-05-16 19:10:00,
2013-05-16 13:15:00,63.5,24.4,17.73,WSW,238,13.0,13.0,25,-99.99,,,-99.99,meteohub,2013-05-16 19:15:00,
2013-05-16 13:21:00,62.8,24.4,17.73,SSW,197,6.0,20.0,25,-99.99,,,-99.99,meteohub,2013-05-16 19:21:00,
2013-05-16 13:26:00,62.8,24.6,17.73,South,177,9.0,20.0,25,-99.99,,,-99.99,meteohub,2013-05-16 19:26:00,
2013-05-16 13:31:00,61.5,24.6,17.73,SSW,207,9.0,20.0,25,-99.99,,,-99.99,meteohub,2013-05-16 19:31:00,
2013-05-16 13:36:00,60.4,24.6,17.73,SSW,196,13.0,14.0,25,-99.99,,,-99.99,meteohub,2013-05-16 19:36:00,
2013-05-16 13:41:00,60.6,24.6,17.73,West,272,11.0,15.0,25,-99.99,,,-99.99,meteohub,2013-05-16 19:41:00,
2013-05-16 13:46:00,61.3,24.6,17.73,SSW,213,9.0,15.0,25,-99.99,,,-99.99,meteohub,2013-05-16 19:46:00,
2013-05-16 13:52:00,61.5,24.6,17.73,SSW,197,13.0,15.0,25,-99.99,,,-99.99,meteohub,2013-05-16 19:52:00,
2013-05-16 13:57:00,62.4,24.6,17.73,SSW,211,10.0,15.0,25,-99.99,,,-99.99,meteohub,2013-05-16 19:57:00,
2013-05-16 14:02:00,63.0,24.6,17.73,SW,216,11.0,15.0,25,-99.99,,,-99.99,meteohub,2013-05-16 20:02:00,
2013-05-16 14:07:00,64.6,24.6,17.73,SSE,163,10.0,15.0,25,-99.99,,,-99.99,meteohub,2013-05-16 20:07:00,
2013-05-16 14:12:00,63.9,24.8,17.73,SSW,212,8.0,15.0,25,-99.99,,,-99.99,meteohub,2013-05-16 20:12:00,
2013-05-16 14:17:00,62.8,24.8,17.73,SW,217,5.0,13.0,25,-99.99,,,-99.99,meteohub,2013-05-16 20:17:00,
2013-05-16 14:22:00,63.1,25.0,17.73,SSW,196,8.0,15.0,25,-99.99,,,-99.99,meteohub,2013-05-16 20:22:00,
2013-05-16 14:27:00,63.9,25.0,17.73,SSW,193,13.0,15.0,25,-99.99,,,-99.99,meteohub,2013-05-16 20:27:00,
2013-05-16 14:32:00,63.5,25.0,17.73,SW,221,11.0,15.0,25,-99.99,,,-99.99,meteohub,2013-05-16 20:32:00,
2013-05-16 14:37:00,64.4,25.0,17.73,SW,225,9.0,15.0,25,-99.99,,,-99.99,meteohub,2013-05-16 20:37:00,
2013-05-16 14:42:00,63.7,25.0,17.73,South,185,8.0,15.0,25,-99.99,,,-99.99,meteohub,2013-05-16 20:42:00,
2013-05-16 14:47:00,63.1,25.0,17.73,SW,234,8.0,15.0,25,-99.99,,,-99.99,meteohub,2013-05-16 20:47:00,
2013-05-16 14:52:00,61.3,25.0,17.73,SW,234,11.0,16.0,25,-99.99,,,-99.99,meteohub,2013-05-16 20:52:00,
2013-05-16 14:57:00,61.5,25.0,17.73,SW,215,9.0,16.0,25,-99.99,,,-99.99,meteohub,2013-05-16 20:57:00,
2013-05-16 15:03:00,61.2,25.0,17.73,WSW,248,11.0,16.0,25,-99.99,,,-99.99,meteohub,2013-05-16 21:03:00,
2013-05-16 15:08:00,61.0,25.0,17.73,WSW,239,13.0,17.0,25,-99.99,,,-99.99,meteohub,2013-05-16 21:08:00,
2013-05-16 15:13:00,61.0,25.0,17.73,SW,221,8.0,17.0,25,-99.99,,,-99.99,meteohub,2013-05-16 21:13:00,
2013-05-16 15:18:00,60.8,25.0,17.73,WSW,243,11.0,17.0,25,-99.99,,,-99.99,meteohub,2013-05-16 21:18:00,
2013-05-16 15:23:00,59.9,25.0,17.73,WSW,256,19.0,19.0,25,-99.99,,,-99.99,meteohub,2013-05-16 21:23:00,
2013-05-16 15:29:00,59.5,25.0,17.73,SW,223,11.0,16.0,25,-99.99,,,-99.99,meteohub,2013-05-16 21:29:00,
2013-05-16 15:34:00,58.1,25.0,17.73,South,189,11.0,19.0,25,-99.99,,,-99.99,meteohub,2013-05-16 21:34:00,
2013-05-16 15:39:00,55.9,25.0,17.73,South,172,13.0,19.0,25,-99.99,,,-99.99,meteohub,2013-05-16 21:39:00,
2013-05-16 15:44:00,54.9,25.0,17.73,SSW,203,12.0,19.0,25,-99.99,,,-99.99,meteohub,2013-05-16 21:44:00,
2013-05-16 15:49:00,55.8,25.0,17.73,South,169,8.0,19.0,25,-99.99,,,-99.99,meteohub,2013-05-16 21:49:00,
2013-05-16 15:54:00,57.2,25.0,17.73,SSE,162,8.0,17.0,25,-99.99,,,-99.99,meteohub,2013-05-16 21:54:00,
2013-05-16 16:00:00,58.8,25.0,17.73,South,173,6.0,12.0,25,-99.99,,,-99.99,meteohub,2013-05-16 22:00:00,
2013-05-16 16:05:00,59.2,25.2,17.73,SSW,204,11.0,12.0,25,-99.99,,,-99.99,meteohub,2013-05-16 22:05:00,
2013-05-16 16:10:00,60.3,25.2,17.73,SSW,211,9.0,12.0,25,-99.99,,,-99.99,meteohub,2013-05-16 22:10:00,
2013-05-16 16:15:00,61.3,25.2,17.73,South,173,9.0,11.0,25,-99.99,,,-99.99,meteohub,2013-05-16 22:15:00,
2013-05-16 16:20:00,60.6,25.2,17.73,SW,220,8.0,11.0,25,-99.99,,,-99.99,meteohub,2013-05-16 22:20:00,
2013-05-16 16:25:00,60.4,25.2,17.73,SSW,210,8.0,13.0,25,-99.99,,,-99.99,meteohub,2013-05-16 22:25:00,
2013-05-16 16:31:00,60.4,25.2,17.73,SW,215,7.0,13.0,25,-99.99,,,-99.99,meteohub,2013-05-16 22:31:00,
2013-05-16 16:36:00,60.1,25.2,17.73,WSW,243,13.0,13.0,25,-99.99,,,-99.99,meteohub,2013-05-16 22:36:00,
2013-05-16 16:41:00,59.7,25.2,17.73,WSW,238,6.0,14.0,25,-99.99,,,-99.99,meteohub,2013-05-16 22:41:00,
2013-05-16 16:46:00,60.4,25.2,17.73,South,189,8.0,14.0,25,-99.99,,,-99.99,meteohub,2013-05-16 22:46:00,
2013-05-16 16:51:00,61.3,25.2,17.73,SW,214,9.0,14.0,25,-99.99,,,-99.99,meteohub,2013-05-16 22:51:00,
2013-05-16 16:56:00,61.3,25.2,17.73,SW,219,8.0,13.0,25,-99.99,,,-99.99,meteohub,2013-05-16 22:56:00,
2013-05-16 17:02:00,61.0,25.2,17.73,SW,235,8.0,15.0,25,-99.99,,,-99.99,meteohub,2013-05-16 23:02:00,
2013-05-16 17:07:00,61.2,25.2,17.73,SW,226,6.0,15.0,25,-99.99,,,-99.99,meteohub,2013-05-16 23:07:00,
2013-05-16 17:12:00,61.2,25.3,17.73,SW,231,11.0,15.0,25,-99.99,,,-99.99,meteohub,2013-05-16 23:12:00,
2013-05-16 17:17:00,61.2,25.3,17.73,SW,225,9.0,13.0,25,-99.99,,,-99.99,meteohub,2013-05-16 23:17:00,
2013-05-16 17:22:00,61.0,25.3,17.73,SW,215,9.0,13.0,25,-99.99,,,-99.99,meteohub,2013-05-16 23:22:00,
2013-05-16 17:28:00,60.6,25.3,17.73,WSW,244,11.0,13.0,25,-99.99,,,-99.99,meteohub,2013-05-16 23:28:00,
2013-05-16 17:33:00,60.4,25.3,17.73,WSW,253,11.0,17.0,25,-99.99,,,-99.99,meteohub,2013-05-16 23:33:00,
2013-05-16 17:38:00,60.4,25.2,17.73,SW,231,10.0,16.0,25,-99.99,,,-99.99,meteohub,2013-05-16 23:38:00,
2013-05-16 17:43:00,60.4,25.2,17.73,WSW,243,15.0,16.0,25,-99.99,,,-99.99,meteohub,2013-05-16 23:43:00,
2013-05-16 17:48:00,60.3,25.2,17.73,SW,223,12.0,16.0,25,-99.99,,,-99.99,meteohub,2013-05-16 23:48:00,
2013-05-16 17:54:00,60.1,25.2,17.73,WSW,244,16.0,16.0,25,-99.99,,,-99.99,meteohub,2013-05-16 23:54:00,
2013-05-16 17:59:00,59.9,25.2,17.73,SW,218,8.0,16.0,25,-99.99,,,-99.99,meteohub,2013-05-16 23:59:00,
2013-05-16 18:04:00,59.9,25.3,17.73,SW,233,8.0,16.0,25,-99.99,,,-99.99,meteohub,2013-05-17 00:04:00,
2013-05-16 18:09:00,59.9,25.3,17.73,SW,226,13.0,16.0,25,-99.99,,,-99.99,meteohub,2013-05-17 00:09:00,
2013-05-16 18:14:00,59.5,25.3,17.73,SW,216,10.0,15.0,25,-99.99,,,-99.99,meteohub,2013-05-17 00:14:00,
2013-05-16 18:20:00,59.4,25.3,17.73,SSW,212,9.0,15.0,25,-99.99,,,-99.99,meteohub,2013-05-17 00:20:00,
2013-05-16 18:25:00,59.0,25.3,17.73,SSW,208,8.0,15.0,25,-99.99,,,-99.99,meteohub,2013-05-17 00:25:00,
2013-05-16 18:30:00,58.8,25.2,17.73,SW,217,11.0,15.0,25,-99.99,,,-99.99,meteohub,2013-05-17 00:30:00,
2013-05-16 18:35:00,58.6,25.2,17.73,West,265,8.0,13.0,25,-99.99,,,-99.99,meteohub,2013-05-17 00:35:00,
2013-05-16 18:40:00,58.5,25.2,17.73,WSW,246,8.0,13.0,25,-99.99,,,-99.99,meteohub,2013-05-17 00:40:00,
2013-05-16 18:46:00,58.3,25.2,17.73,West,267,6.0,13.0,25,-99.99,,,-99.99,meteohub,2013-05-17 00:46:00,
2013-05-16 18:51:00,58.8,25.2,17.73,WNW,287,6.0,13.0,25,-99.99,,,-99.99,meteohub,2013-05-17 00:51:00,
2013-05-16 18:56:00,58.1,25.2,17.73,West,259,5.0,12.0,25,-99.99,,,-99.99,meteohub,2013-05-17 00:56:00,
2013-05-16 19:01:00,57.6,25.2,17.73,WSW,251,7.0,13.0,25,-99.99,,,-99.99,meteohub,2013-05-17 01:01:00,
2013-05-16 19:06:00,57.9,25.2,17.73,West,267,5.0,13.0,25,-99.99,,,-99.99,meteohub,2013-05-17 01:06:00,
2013-05-16 19:12:00,58.3,25.2,17.73,NNW,346,5.0,11.0,25,-99.99,,,-99.99,meteohub,2013-05-17 01:12:00,
2013-05-16 19:17:00,58.1,25.2,17.73,West,268,3.0,8.0,25,-99.99,,,-99.99,meteohub,2013-05-17 01:17:00,
2013-05-16 19:22:00,57.6,25.2,17.73,West,267,4.0,9.0,25,-99.99,,,-99.99,meteohub,2013-05-17 01:22:00,
2013-05-16 19:27:00,57.2,25.2,17.73,WSW,255,3.0,9.0,25,-99.99,,,-99.99,meteohub,2013-05-17 01:27:00,
2013-05-16 19:32:00,57.2,25.0,17.73,West,271,4.0,9.0,25,-99.99,,,-99.99,meteohub,2013-05-17 01:32:00,
2013-05-16 19:37:00,56.7,25.0,17.73,WSW,243,4.0,6.0,25,-99.99,,,-99.99,meteohub,2013-05-17 01:37:00,
2013-05-16 19:42:00,56.7,25.0,17.73,WSW,257,4.0,6.0,25,-99.99,,,-99.99,meteohub,2013-05-17 01:42:00,
2013-05-16 19:47:00,57.0,25.0,17.73,West,264,4.0,6.0,25,-99.99,,,-99.99,meteohub,2013-05-17 01:47:00,
2013-05-16 19:52:00,57.2,25.0,17.73,West,264,4.0,6.0,25,-99.99,,,-99.99,meteohub,2013-05-17 01:52:00,
2013-05-16 19:57:00,56.3,25.0,17.73,SW,235,4.0,6.0,25,-99.99,,,-99.99,meteohub,2013-05-17 01:57:00,
2013-05-16 20:02:00,55.8,25.0,17.73,WSW,241,4.0,8.0,25,-99.99,,,-99.99,meteohub,2013-05-17 02:02:00,
2013-05-16 20:08:00,55.8,25.0,17.73,SW,225,3.0,8.0,25,-99.99,,,-99.99,meteohub,2013-05-17 02:08:00,
2013-05-16 20:13:00,55.2,25.0,17.73,SW,230,3.0,5.0,25,-99.99,,,-99.99,meteohub,2013-05-17 02:13:00,
2013-05-16 20:18:00,55.0,25.0,17.73,SW,230,0.0,5.0,25,-99.99,,,-99.99,meteohub,2013-05-17 02:18:00,
2013-05-16 20:23:00,54.7,25.0,17.73,SW,230,3.0,4.0,25,-99.99,,,-99.99,meteohub,2013-05-17 02:23:00,
2013-05-16 20:28:00,54.5,25.0,17.73,SW,230,0.0,4.0,25,-99.99,,,-99.99,meteohub,2013-05-17 02:28:00,
2013-05-16 20:33:00,54.3,25.0,17.73,SW,230,0.0,4.0,25,-99.99,,,-99.99,meteohub,2013-05-17 02:33:00,
2013-05-16 20:39:00,54.0,25.0,17.73,SW,230,0.0,4.0,25,-99.99,,,-99.99,meteohub,2013-05-17 02:39:00,
2013-05-16 20:44:00,53.6,25.0,17.73,SW,230,0.0,2.0,25,-99.99,,,-99.99,meteohub,2013-05-17 02:44:00,
2013-05-16 20:49:00,53.2,25.0,17.73,SSW,212,3.0,0.0,25,-99.99,,,-99.99,meteohub,2013-05-17 02:49:00,
2013-05-16 20:54:00,53.1,25.0,17.73,West,272,6.0,6.0,25,-99.99,,,-99.99,meteohub,2013-05-17 02:54:00,
2013-05-16 20:59:00,53.1,25.0,17.73,WSW,250,4.0,6.0,25,-99.99,,,-99.99,meteohub,2013-05-17 02:59:00,
2013-05-16 21:05:00,53.1,25.0,17.73,South,188,9.0,9.0,25,-99.99,,,-99.99,meteohub,2013-05-17 03:05:00,
2013-05-16 21:10:00,52.7,25.0,17.73,South,169,8.0,8.0,25,-99.99,,,-99.99,meteohub,2013-05-17 03:10:00,
2013-05-16 21:15:00,52.2,25.0,17.73,South,170,4.0,9.0,25,-99.99,,,-99.99,meteohub,2013-05-17 03:15:00,
2013-05-16 21:20:00,51.6,24.8,17.73,South,182,6.0,9.0,25,-99.99,,,-99.99,meteohub,2013-05-17 03:20:00,
2013-05-16 21:25:00,51.3,24.8,17.73,South,176,6.0,8.0,25,-99.99,,,-99.99,meteohub,2013-05-17 03:25:00,
2013-05-16 21:31:00,50.7,24.8,17.73,South,189,6.0,8.0,25,-99.99,,,-99.99,meteohub,2013-05-17 03:31:00,
2013-05-16 21:36:00,50.0,24.8,17.73,SSW,204,5.0,8.0,25,-99.99,,,-99.99,meteohub,2013-05-17 03:36:00,
2013-05-16 21:41:00,49.8,24.8,17.73,SSW,194,3.0,8.0,25,-99.99,,,-99.99,meteohub,2013-05-17 03:41:00,
2013-05-16 21:46:00,49.6,24.8,17.73,SSW,195,2.0,8.0,25,-99.99,,,-99.99,meteohub,2013-05-17 03:46:00,
2013-05-16 21:51:00,49.5,24.8,17.73,South,182,4.0,8.0,25,-99.99,,,-99.99,meteohub,2013-05-17 03:51:00,
2013-05-16 21:56:00,49.5,24.8,17.73,South,185,4.0,8.0,25,-99.99,,,-99.99,meteohub,2013-05-17 03:56:00,
2013-05-16 22:01:00,49.5,24.8,17.73,SSW,202,2.0,5.0,25,-99.99,,,-99.99,meteohub,2013-05-17 04:01:00,
2013-05-16 22:02:00,49.5,24.8,17.73,SSW,203,3.0,5.0,25,-99.99,,,-99.99,meteohub,2013-05-17 04:02:00,
2013-05-16 22:03:00,49.5,24.8,17.73,SSW,213,3.0,5.0,25,-99.99,,,-99.99,meteohub,2013-05-17 04:03:00,
2013-05-16 22:08:00,49.5,24.6,17.73,SSW,195,4.0,4.0,25,-99.99,,,-99.99,meteohub,2013-05-17 04:08:00,
2013-05-16 22:13:00,49.3,24.6,17.73,SSW,196,3.0,5.0,25,-99.99,,,-99.99,meteohub,2013-05-17 04:13:00,
2013-05-16 22:18:00,49.1,24.6,17.73,South,178,3.0,5.0,25,-99.99,,,-99.99,meteohub,2013-05-17 04:18:00,
2013-05-16 22:23:00,48.9,24.6,17.73,South,170,4.0,5.0,25,-99.99,,,-99.99,meteohub,2013-05-17 04:23:00,
2013-05-16 22:29:00,48.7,24.6,17.73,South,170,0.0,5.0,25,-99.99,,,-99.99,meteohub,2013-05-17 04:29:00,
2013-05-16 22:34:00,48.4,24.6,17.73,South,170,0.0,6.0,25,-99.99,,,-99.99,meteohub,2013-05-17 04:34:00,
2013-05-16 22:39:00,48.2,24.4,17.73,South,170,4.0,6.0,25,-99.99,,,-99.99,meteohub,2013-05-17 04:39:00,
2013-05-16 22:44:00,48.0,24.4,17.73,South,185,3.0,4.0,25,-99.99,,,-99.99,meteohub,2013-05-17 04:44:00,
2013-05-16 22:49:00,47.7,24.4,17.73,South,190,4.0,5.0,25,-99.99,,,-99.99,meteohub,2013-05-17 04:49:00,
2013-05-16 22:55:00,47.5,24.4,17.73,SSW,195,3.0,6.0,25,-99.99,,,-99.99,meteohub,2013-05-17 04:55:00,
2013-05-16 23:00:00,47.5,24.4,17.73,South,171,4.0,8.0,25,-99.99,,,-99.99,meteohub,2013-05-17 05:00:00,
2013-05-16 23:05:00,47.3,24.4,17.73,South,190,0.0,8.0,25,-99.99,,,-99.99,meteohub,2013-05-17 05:05:00,
2013-05-16 23:10:00,47.1,24.4,17.73,South,176,4.0,8.0,25,-99.99,,,-99.99,meteohub,2013-05-17 05:10:00,
2013-05-16 23:15:00,46.9,24.4,17.73,South,172,3.0,6.0,25,-99.99,,,-99.99,meteohub,2013-05-17 05:15:00,
2013-05-16 23:20:00,46.6,24.3,17.73,South,187,4.0,6.0,25,-99.99,,,-99.99,meteohub,2013-05-17 05:20:00,
2013-05-16 23:26:00,46.4,24.3,17.73,SSE,156,2.0,6.0,25,-99.99,,,-99.99,meteohub,2013-05-17 05:26:00,
2013-05-16 23:31:00,46.2,24.3,17.73,South,169,3.0,6.0,25,-99.99,,,-99.99,meteohub,2013-05-17 05:31:00,
2013-05-16 23:36:00,46.0,24.3,17.73,SSE,168,4.0,5.0,25,-99.99,,,-99.99,meteohub,2013-05-17 05:36:00,
2013-05-16 23:41:00,45.9,24.3,17.73,SSE,168,0.0,5.0,25,-99.99,,,-99.99,meteohub,2013-05-17 05:41:00,
2013-05-16 23:46:00,45.7,24.3,17.73,ESE,114,3.0,5.0,25,-99.99,,,-99.99,meteohub,2013-05-17 05:46:00,
2013-05-16 23:51:00,45.7,24.3,17.73,SE,131,3.0,5.0,25,-99.99,,,-99.99,meteohub,2013-05-17 05:51:00,
2013-05-16 23:57:00,45.5,24.1,17.73,SE,141,2.0,5.0,25,-99.99,,,-99.99,meteohub,2013-05-17 05:57:00,